Airfield :
LOGIN :

Register | Disclaimer

   EN    FR    IT 

 










Legend :    VFR   Marginal VFR   IFR   Intensive IFR   Very Intensive IFR
Visi :
Ceiling :
>= 8 km
>= 3000ft
5 to 8 km
1000 to 3000 ft
1500m to 5 km
500 to 1000 ft
800 to 1500m
200 to 500 ft
< 800m
< 200 ft
Symbols :   Thunderstorms  Fog  Heavy snow  Heavy precipitations  Wind > 20 kt
SIGMETs :     Misc.  Thunderstorms  Icing  Turbulence  Mountain Waves  Volcanic Ashes







- Airport Elevation : 29 ft


LIRM - Grazzanise Caserta

CURRENT METAR :
  • 241655Z 16005KT 9999 SCT040 BKN070 22/21 Q1016 RMK OVC VIS MIN 9999 WIND THR06 14005KT BLU

EXPIRED METARs :
  • 241555Z 21005KT 9999 -RA FEW020CB SCT050 22/21 Q1016 RMK OVC BKN200 VIS MIN 9999 WIND THR06 18005KT BLU
  • 241455Z 26012KT 9999 FEW018CB SCT070 23/22 Q1016

TAF TAF LIRM
Valid from the 24 at 18:00 until the 25 at 03:00 UTC


241700Z 2418/2503 VRB03KT 9999 SCT030 SCT060
TEMPO 2418/2420 6000 RA BKN030
BECMG 2423/2501 3000 BR SCT010
No reported NOTAMs for that airfield.



MET'MAP, your aeronautical weather chart ! - Copyright ORBIFLY December 2007 - Disclaimer

ORBIFLY MET'MAP TEAM :

Programming & Development : Alexandra Zaïnal
Concept & Development : Baudouin d'Aumeries
Co-Development & Prog : Marc-Olivier Méhu
Technical & hardware support : Manuel Goepfert

Contact : metmap@orbifly.com




SOURCES & CREDITS :

   NOAA